Location: Trondheim
(63.4170°N, 10.4170°E)
Time: 22:38:06
(UTC+01:00)

Envisat - Visible Passes

Search period start: 21 November 2019 00:00
Search period end: 01 December 2019 00:00
Orbit: 764 x 766 km, 98.1° (Epoch: 21 November)

Date Brightness Start Highest point End Pass type
(mag) Time Alt. Az. Time Alt. Az. Time Alt. Az.
21 Nov 5.9 05:43:10 10° NE 05:46:28 17° E 05:49:44 10° ESE visible
21 Nov 3.7 07:21:29 10° NNE 07:26:33 61° ESE 07:31:36 10° S visible
21 Nov 3.0 17:08:41 10° SE 17:13:42 62° ENE 17:18:44 10° NNW visible
21 Nov 4.5 18:48:19 10° SSW 18:53:03 38° W 18:57:48 10° NNW visible
21 Nov 6.3 20:33:09 10° WNW 20:33:37 10° WNW 20:34:05 10° WNW visible
22 Nov 6.4 05:08:38 10° ENE 05:08:58 10° ENE 05:09:19 10° ENE visible
22 Nov 4.6 06:44:47 10° NNE 06:49:33 38° E 06:54:16 10° SSE visible
22 Nov 3.4 16:32:21 10° ESE 16:37:05 40° NE 16:41:50 10° NNW visible
22 Nov 3.5 18:10:59 10° S 18:16:01 61° WSW 18:21:06 10° NNW visible
22 Nov 5.7 19:52:50 10° WSW 19:56:07 17° W 19:59:25 10° NW visible
23 Nov 5.5 06:08:16 10° NNE 06:12:21 24° E 06:16:26 10° SE visible
23 Nov 3.1 07:47:00 10° NNE 07:52:09 85° ESE 07:57:14 10° SSW visible
23 Nov 2.9 17:34:04 10° SSE 17:39:10 84° ENE 17:44:18 10° NNW visible
23 Nov 5.1 19:14:30 10° SSW 19:18:48 27° W 19:23:09 10° NNW visible
24 Nov 6.0 05:32:10 10° NE 05:35:00 15° ENE 05:37:48 10° ESE visible
24 Nov 3.9 07:10:13 10° NNE 07:15:14 53° E 07:20:13 10° S visible
24 Nov 3.1 16:57:30 10° SE 17:02:28 54° ENE 17:07:25 10° NNW visible
24 Nov 4.2 18:36:49 10° S 18:41:41 43° W 18:46:34 10° NNW visible
24 Nov 6.1 20:20:12 10° W 20:22:06 12° WNW 20:24:01 10° NW visible
25 Nov 4.9 06:33:34 10° NNE 06:38:10 33° E 06:42:44 10° SSE visible
25 Nov 3.5 16:21:16 10° ESE 16:25:53 36° NE 16:30:31 10° NNW visible
25 Nov 3.3 17:59:37 10° S 18:04:43 71° WSW 18:09:49 10° NNW visible
25 Nov 5.6 19:41:00 10° SW 19:44:40 20° W 19:48:21 10° NW visible
26 Nov 5.7 05:57:08 10° NE 06:00:56 21° E 06:04:42 10° SE visible
26 Nov 3.3 07:35:43 10° NNE 07:40:50 74° ESE 07:45:56 10° SSW visible
26 Nov 2.9 17:22:49 10° SSE 17:27:54 74° ENE 17:33:00 10° NNW visible
26 Nov 4.8 19:02:54 10° SSW 19:07:24 31° W 19:11:57 10° NNW visible
27 Nov 6.1 05:21:19 10° NE 05:23:30 13° ENE 05:25:42 10° ESE visible
27 Nov 4.2 06:58:58 10° NNE 07:03:53 46° E 07:08:46 10° S visible
27 Nov 3.2 16:46:22 10° SE 16:51:13 48° ENE 16:56:07 10° NNW visible
27 Nov 3.9 18:25:23 10° S 18:30:20 50° W 18:35:19 10° NNW visible
27 Nov 6.0 20:08:00 10° WSW 20:10:37 14° WNW 20:13:14 10° NW visible
28 Nov 5.1 06:22:21 10° NNE 06:26:46 28° E 06:31:09 10° SSE visible
28 Nov 3.0 08:01:15 10° NNE 08:06:22 81° WNW 08:11:28 10° SSW visible
28 Nov 3.7 16:10:12 10° ESE 16:14:41 32° NE 16:19:12 10° NNW visible
28 Nov 3.1 17:48:17 10° SSE 17:53:24 81° WSW 17:58:33 10° NNW visible
28 Nov 5.4 19:29:16 10° SW 19:33:14 22° W 19:37:13 10° NW visible
29 Nov 5.9 05:46:02 10° NE 05:49:28 18° E 05:52:55 10° SE visible
29 Nov 3.5 07:24:25 10° NNE 07:29:31 65° ESE 07:34:35 10° S visible
29 Nov 2.9 17:11:36 10° SE 17:16:38 65° ENE 17:21:41 10° NNW visible
29 Nov 4.5 18:51:21 10° SSW 18:56:01 36° W 19:00:44 10° NNW visible
30 Nov 6.3 05:10:47 10° ENE 05:12:01 11° ENE 05:13:13 10° E visible
30 Nov 4.5 06:47:43 10° NNE 06:52:31 40° E 06:57:18 10° SSE visible
30 Nov 3.3 16:35:14 10° SE 16:40:00 42° NE 16:44:48 10° NNW visible
30 Nov 3.6 18:13:58 10° S 18:18:59 58° WSW 18:24:02 10° NNW visible
30 Nov 5.8 19:56:01 10° WSW 19:59:08 16° W 20:02:16 10° NW visible
